Regional Weather Roundup
Issued by NWS

Home | Current Version | Previous Version | Graphics & Text | Print | Product List | Glossary Off
Versions: 1 2 3 4 5 6 7 8 9 10 11 12 13 14 15 16 17 18 19 20 21 22 23 24 25 26 27 28 29 30 31 32 33 34 35 36 37 38 39 40 41 42 43 44 45 46 47 48 49 50

938
ASUS43 KMPX 291010
RWRMN
WEATHER ROUNDUP FOR MINNESOTA
NATIONAL WEATHER SERVICE TWIN CITIES/CHANHASSEN MN
500 AM CDT WED MAR 29 2017


NOTE: "FAIR" INDICATES FEW OR NO CLOUDS BELOW 12,000 FEET WITH NO
SIGNIFICANT WEATHER AND/OR OBSTRUCTIONS TO VISIBILITY. N/A MEANS
CURRENT SKY AND/OR WEATHER CONDITIONS ARE NOT AVAILABLE.

MNZ060>063-068>070-291100-
   Twin Cities Metro

CITY           SKY/WX    TMP DP  RH WIND       PRES   REMARKS
TWIN CITIES    CLOUDY    45  30  55 SE6       30.19S
ST PAUL        PTCLDY    40  37  89 CALM      30.21S
CRYSTAL        PTCLDY    36  27  69 CALM      30.19R
BLAINE         CLOUDY    37  30  75 CALM      30.20S
LAKEVILLE      CLOUDY    36  36 100 CALM      30.19F
EDEN PRAIRIE   CLOUDY    42  33  70 NE6       30.18S
SOUTH ST PAUL  CLOUDY    40  31  70 CALM      30.20S
LAKE ELMO      FAIR      34  32  93 CALM      30.22R
$$
MNZ001>005-007-008-013>017-022>024-027-028-291100-
   Northwest Minnesota

CITY           SKY/WX    TMP DP  RH WIND       PRES   REMARKS
BEMIDJI        CLOUDY    33  26  76 E6        30.21S WCI  28
HALLOCK        CLOUDY    37  30  75 SE8       30.17S
ROSEAU         MOCLDY    36  28  75 E5        30.21S
WARROAD        MOCLDY    34  28  80 E6        30.22F WCI  29
THIEF RVR FALL PTCLDY    35  28  75 E10       30.20S WCI  27
CROOKSTON      CLOUDY    37  30  75 SE7       30.19S
FOSSTON        PTCLDY    37  28  70 E8        30.19S
DETROIT LAKES  CLOUDY    43  30  61 E3        30.19S
MOORHEAD       CLOUDY    36  32  87 CALM      30.18S
PARK RAPIDS    CLOUDY    40  25  55 E7        30.20R
MAHNOMEN       FAIR      41  29  63 SE7       30.17F
$$
MNZ006-009>011-018-025>026-291100-
   North Central Minnesota

CITY           SKY/WX    TMP DP  RH WIND       PRES   REMARKS
BAUDETTE       MOCLDY    33  25  72 SE9       30.23S WCI  25
FLAG ISLAND    MOCLDY    36  21  55 E8        30.23S
INTL FALLS     PTCLDY    32  24  72 E7        30.27R WCI  26
WASKISH        PTCLDY    34  27  75 E6        30.23S WCI  29
BIG FORK       PTCLDY    36  27  69 CALM      30.24F
LONGVILLE      PTCLDY    34  27  75 CALM      30.23R
GRAND RAPIDS   PTCLDY    34  25  69 SE7       30.26F WCI  28
CRANE LAKE     PTCLDY    25  23  93 CALM      30.31S
ORR            CLOUDY    30  21  69 CALM      30.25S
COOK           PTCLDY    28  25  86 E3        30.27F
WALKER         FAIR      33  27  79 CALM      30.22S
$$
MNZ012-019>021-037-291100-
   Northeast Minnesota

CITY           SKY/WX    TMP DP  RH WIND       PRES   REMARKS
DULUTH         CLOUDY    33  25  72 E14       30.26F WCI  23
ELY            CLEAR     23  21  93 CALM      30.29S
HIBBING        CLOUDY    26  25  96 CALM      30.26F
EVELETH        CLEAR     30  23  76 NE5       30.28F WCI  25
DULUTH HARBOR  PTCLDY    36  32  87 NE17      30.31S
TWO HARBORS    CLOUDY    36  27  69 NE10      30.28F
GRAND MARAIS     N/A     34  25  69 NE8       30.37R WCI  27
G MARAIS ARPRT CLEAR     27  19  74 E7        30.33R WCI  19
$$
MNZ029>031-032-039>041-046>048-054>057-064-291100-
   West Central Minnesota

CITY           SKY/WX    TMP DP  RH WIND       PRES   REMARKS
FERGUS FALLS   CLOUDY    41  30  65 E6        30.21R
WHEATON        FOG       36  36 100 CALM      30.19S VSB 1/2
MORRIS         CLOUDY    36  34  93 SE6       30.17S
ALEXANDRIA     CLOUDY    37  31  78 SE5       30.19R
ELBOW LAKE     FAIR      40  35  83 CALM      30.18R
WADENA         MOCLDY    37  27  65 E3        30.19R
GLENWOOD       CLOUDY    36  30  80 E5        30.19R
APPLETON       CLOUDY    36  32  87 CALM      30.17S
BENSON         CLOUDY    39  28  65 SE7       30.19S
ORTONVILLE     PTCLDY    36  34  93 NW3       30.17S
MADISON        CLOUDY    39  39 100 CALM      30.17S
WILLMAR        FAIR      37  30  75 NE5       30.19S
$$
MNZ033>034-036-042>043-049>051-058-059-291100-
   Central Minnesota

CITY           SKY/WX    TMP DP  RH WIND       PRES   REMARKS
ST CLOUD       CLOUDY    38  29  70 NE3       30.20S
SAUK CENTRE    FAIR      30  28  93 CALM      30.20R
PAYNESVILLE    PTCLDY    32  32 100 CALM      30.19S
AITKIN         CLEAR     34  27  75 NE3       30.22S
PINE RIVER     PTCLDY    34  28  80 E3        30.25R
BRAINERD       PTCLDY    34  28  79 E6        30.22R WCI  29
STAPLES        PTCLDY    37  27  65 E5        30.20R
LONG PRAIRIE   FAIR      37  30  75 NE3       30.20R
LITTLE FALLS   PTCLDY    32  27  80 CALM      30.21R
LITCHFIELD     MOCLDY    39  34  81 CALM      30.19S
BUFFALO        CLOUDY    37  29  74 N3        30.20S
MAPLE LAKE     CLOUDY    34  31  88 N3        30.20S
HUTCHINSON     CLOUDY    39  33  78 NE5       30.18F
$$
MNZ037-044-045-052-053-291100-
   East Central Minnesota

CITY           SKY/WX    TMP DP  RH WIND       PRES   REMARKS
PRINCETON      CLOUDY    37  30  75 NE5       30.22R
MORA           CLOUDY    32  30  93 CALM      30.25R
CAMBRIDGE      CLOUDY    37  27  65 NE3       30.21R
RUSH CITY      CLOUDY    34  28  80 NE5       30.23R WCI  30
MOOSE LAKE     CLEAR     32  30  93 NE7       30.24S WCI  26
CLOQUET        PTCLDY    34  25  69 E7        30.26R WCI  28
MCGREGOR       CLEAR     32  28  86 E5        30.24S WCI  27
$$
MNZ071>073-080-081-089-090-097-098-291100-
   Southwest Minnesota

CITY           SKY/WX    TMP DP  RH WIND       PRES   REMARKS
MONTEVIDEO     CLOUDY    34  28  80 CALM      30.17F
GRANITE FALLS  CLOUDY    41  33  73 CALM      30.18S
CANBY          MOCLDY    38  34  85 CALM      30.18S
MARSHALL       CLOUDY    37  34  89 W6        30.17S
REDWOOD FALLS  CLOUDY    45  32  60 CALM      30.16F
OLIVIA         MOCLDY    41  32  70 CALM      30.16F
PIPESTONE      CLOUDY    45  34  65 E5        30.14S
WINDOM         MOCLDY    39  36  87 CALM      30.15S
WORTHINGTON    MOCLDY    38  36  92 N3        30.15S
JACKSON        CLOUDY    37  36  93 CALM      30.15S
TRACY          CLOUDY    42  36  78 CALM      30.16S
SLAYTON        CLOUDY    37  34  87 CALM      30.16S
$$
MNZ065>067-074>077-082>085-091>093-291100-
   South Central Minnesota

CITY           SKY/WX    TMP DP  RH WIND       PRES   REMARKS
MANKATO        CLOUDY    44  35  70 E5        30.18S
NEW ULM        CLOUDY    43  34  70 E3        30.17S
ST JAMES       CLOUDY    43  36  75 CALM      30.17S
FAIRMONT       CLOUDY    41  37  86 E3        30.16S
GLENCOE        CLOUDY    36  34  92 CALM      30.17F
FARIBAULT      CLOUDY    45  36  70 E6        30.18F
OWATONNA       CLOUDY    41  34  75 E5        30.18S
WASECA         CLOUDY    39  34  81 E6        30.19R
ALBERT LEA     CLOUDY    41  36  81 E5        30.16S
$$
MNZ078>079-086>088-094>096-291100-
   Southeast Minnesota

CITY           SKY/WX    TMP DP  RH WIND       PRES   REMARKS
ROCHESTER      PTCLDY    39  34  82 E8        30.19F
RED WING       CLOUDY    36  30  80 CALM      30.20F
STANTON        CLOUDY    36  33  89 CALM      30.18F
DODGE CENTER   CLOUDY    39  34  81 E7        30.19S
WINONA         CLOUDY    36  36 100 CALM      30.23S
AUSTIN         CLOUDY    41  36  81 E7        30.17S
PRESTON        CLOUDY    39  34  81 E6        30.20S
$$
ABBREVIATIONS USED IN REMARKS
   TC - TEMPERATURES IN CELSIUS
  WCI - WIND CHILL INDEX
   HX - HEAT INDEX
  VSB - VISIBILITY
$$




USA.gov is the U.S. government's official web portal to all federal, state and local government web resources and services.